Time,TemperatureF,DewpointF,PressureIn,WindDirection,WindDirectionDegrees,WindSpeedMPH,WindSpeedGustMPH,Humidity,HourlyPrecipIn,Conditions,Clouds,dailyrainin,SoftwareType,DateUTC
2013-03-22 00:02:00,69.0,55.0,29.79,SE,136,9.0,16.0,60,0.00,,,0.00,,2013-03-22 00:02:00,
2013-03-22 00:12:00,69.0,55.0,29.79,SE,136,9.0,16.0,60,0.00,,,0.00,,2013-03-22 00:12:00,
2013-03-22 00:22:00,69.0,55.0,29.80,SE,144,10.0,19.0,61,0.00,,,0.00,,2013-03-22 00:22:00,
2013-03-22 00:32:00,69.0,55.0,29.80,SE,144,10.0,19.0,61,0.00,,,0.00,,2013-03-22 00:32:00,
2013-03-22 00:42:00,69.0,55.0,29.80,SE,144,10.0,19.0,61,0.00,,,0.00,,2013-03-22 00:42:00,
2013-03-22 00:52:00,68.0,55.0,29.80,SE,136,9.0,14.0,63,0.00,,,0.00,,2013-03-22 00:52:00,
2013-03-22 01:02:00,68.0,55.0,29.80,ESE,122,9.0,14.0,63,0.00,,,0.00,,2013-03-22 01:02:00,
2013-03-22 01:12:00,68.0,55.0,29.80,ESE,122,9.0,14.0,63,0.00,,,0.00,,2013-03-22 01:12:00,
2013-03-22 01:22:00,67.0,55.0,29.79,SE,136,7.0,11.0,65,0.00,,,0.00,,2013-03-22 01:22:00,
2013-03-22 01:32:00,67.0,55.0,29.79,SE,142,5.0,10.0,66,0.00,,,0.00,,2013-03-22 01:32:00,
2013-03-22 01:42:00,67.0,55.0,29.79,SE,142,5.0,10.0,66,0.00,,,0.00,,2013-03-22 01:42:00,
2013-03-22 01:53:00,67.0,56.0,29.78,ESE,109,5.0,9.0,68,0.00,,,0.00,,2013-03-22 01:53:00,
2013-03-22 02:02:00,67.0,56.0,29.78,SE,140,4.0,11.0,68,0.00,,,0.00,,2013-03-22 02:02:00,
2013-03-22 02:12:00,67.0,56.0,29.78,SE,140,4.0,11.0,68,0.00,,,0.00,,2013-03-22 02:12:00,
2013-03-22 02:22:00,67.0,56.0,29.77,SE,125,6.0,12.0,69,0.00,,,0.00,,2013-03-22 02:22:00,
2013-03-22 02:32:00,67.0,56.0,29.77,SE,125,6.0,12.0,69,0.00,,,0.00,,2013-03-22 02:32:00,
2013-03-22 02:42:00,67.0,56.0,29.77,SE,125,6.0,12.0,69,0.00,,,0.00,,2013-03-22 02:42:00,
2013-03-22 02:52:00,67.0,58.0,29.75,SE,128,8.0,14.0,72,0.00,,,0.00,,2013-03-22 02:52:00,
2013-03-22 03:02:00,67.0,58.0,29.75,SE,135,9.0,12.0,74,0.00,,,0.00,,2013-03-22 03:02:00,
2013-03-22 03:12:00,67.0,58.0,29.75,SE,135,9.0,12.0,74,0.00,,,0.00,,2013-03-22 03:12:00,
2013-03-22 03:22:00,67.0,59.0,29.77,ESE,115,4.0,10.0,76,0.00,,,0.00,,2013-03-22 03:22:00,
2013-03-22 03:33:00,67.0,60.0,29.77,ESE,106,5.0,8.0,78,0.00,,,0.00,,2013-03-22 03:33:00,
2013-03-22 03:42:00,67.0,60.0,29.77,ESE,106,5.0,8.0,78,0.00,,,0.00,,2013-03-22 03:42:00,
2013-03-22 03:53:00,67.0,61.0,29.77,ESE,104,4.0,8.0,80,0.00,,,0.00,,2013-03-22 03:53:00,
2013-03-22 04:03:00,68.0,62.0,29.78,East,98,5.0,9.0,80,0.00,,,0.00,,2013-03-22 04:03:00,
2013-03-22 04:12:00,68.0,62.0,29.78,East,98,5.0,9.0,80,0.00,,,0.00,,2013-03-22 04:12:00,
2013-03-22 04:23:00,68.0,61.0,29.78,ESE,102,5.0,8.0,79,0.00,,,0.00,,2013-03-22 04:23:00,
2013-03-22 04:32:00,68.0,61.0,29.78,ESE,102,5.0,8.0,79,0.00,,,0.00,,2013-03-22 04:32:00,
2013-03-22 04:42:00,68.0,61.0,29.78,ESE,102,5.0,8.0,79,0.00,,,0.00,,2013-03-22 04:42:00,
2013-03-22 04:52:00,68.0,62.0,29.78,East,100,4.0,7.0,80,0.00,,,0.00,,2013-03-22 04:52:00,
2013-03-22 05:02:00,68.0,62.0,29.78,East,95,6.0,8.0,81,0.00,,,0.00,,2013-03-22 05:02:00,
2013-03-22 05:12:00,68.0,62.0,29.78,East,95,6.0,8.0,81,0.00,,,0.00,,2013-03-22 05:12:00,
2013-03-22 05:22:00,68.0,62.0,29.78,East,91,4.0,7.0,82,0.00,,,0.00,,2013-03-22 05:22:00,
2013-03-22 05:32:00,68.0,63.0,29.78,ESE,103,5.0,8.0,83,0.00,,,0.00,,2013-03-22 05:32:00,
2013-03-22 05:42:00,68.0,63.0,29.78,ESE,103,5.0,8.0,83,0.00,,,0.00,,2013-03-22 05:42:00,
2013-03-22 05:52:00,68.0,63.0,29.77,East,98,6.0,9.0,83,0.00,,,0.00,,2013-03-22 05:52:00,
2013-03-22 06:02:00,68.0,63.0,29.77,East,81,5.0,9.0,83,0.00,,,0.00,,2013-03-22 06:02:00,
2013-03-22 06:12:00,68.0,63.0,29.77,East,81,5.0,9.0,83,0.00,,,0.00,,2013-03-22 06:12:00,
2013-03-22 06:22:00,68.0,63.0,29.77,ENE,59,5.0,9.0,85,0.00,,,0.00,,2013-03-22 06:22:00,
2013-03-22 06:32:00,68.0,64.0,29.77,ENE,59,5.0,9.0,86,0.00,,,0.00,,2013-03-22 06:32:00,
2013-03-22 06:42:00,68.0,64.0,29.77,ENE,59,5.0,9.0,86,0.00,,,0.00,,2013-03-22 06:42:00,
2013-03-22 06:52:00,68.0,64.0,29.76,East,96,4.0,10.0,88,0.00,,,0.00,,2013-03-22 06:52:00,
2013-03-22 07:02:00,67.0,63.0,29.76,NE,56,6.0,10.0,87,0.01,,,0.01,,2013-03-22 07:02:00,
2013-03-22 07:12:00,67.0,63.0,29.76,NE,56,6.0,10.0,87,0.01,,,0.01,,2013-03-22 07:12:00,
2013-03-22 07:22:00,66.0,63.0,29.75,ENE,77,3.0,8.0,89,0.02,,,0.02,,2013-03-22 07:22:00,
2013-03-22 07:32:00,66.0,63.0,29.75,ENE,77,3.0,8.0,89,0.02,,,0.02,,2013-03-22 07:32:00,
2013-03-22 07:42:00,66.0,63.0,29.75,ENE,77,3.0,8.0,89,0.02,,,0.02,,2013-03-22 07:42:00,
2013-03-22 07:52:00,66.0,63.0,29.72,SE,135,6.0,9.0,90,0.02,,,0.02,,2013-03-22 07:52:00,
2013-03-22 08:03:00,66.0,63.0,29.72,ESE,109,6.0,9.0,91,0.01,,,0.02,,2013-03-22 08:03:00,
2013-03-22 08:12:00,66.0,63.0,29.72,ESE,109,6.0,9.0,91,0.01,,,0.02,,2013-03-22 08:12:00,
2013-03-22 08:22:00,67.0,64.0,29.72,ESE,113,4.0,8.0,91,0.00,,,0.02,,2013-03-22 08:22:00,
2013-03-22 08:32:00,68.0,65.0,29.71,SE,140,4.0,10.0,91,0.00,,,0.02,,2013-03-22 08:32:00,
2013-03-22 08:42:00,68.0,65.0,29.71,SE,140,4.0,10.0,91,0.00,,,0.02,,2013-03-22 08:42:00,
2013-03-22 08:52:00,69.0,66.0,29.70,SE,143,6.0,14.0,91,0.00,,,0.02,,2013-03-22 08:52:00,
2013-03-22 09:02:00,69.0,66.0,29.70,SE,143,6.0,14.0,91,0.00,,,0.02,,2013-03-22 09:02:00,
2013-03-22 09:12:00,69.0,66.0,29.70,SE,143,6.0,14.0,91,0.00,,,0.02,,2013-03-22 09:12:00,
2013-03-22 09:22:00,70.0,67.0,29.69,ESE,116,6.0,14.0,91,0.00,,,0.02,,2013-03-22 09:22:00,
2013-03-22 09:32:00,70.0,67.0,29.68,SE,136,6.0,12.0,91,0.00,,,0.02,,2013-03-22 09:32:00,
2013-03-22 09:42:00,70.0,67.0,29.68,SE,136,6.0,12.0,91,0.00,,,0.02,,2013-03-22 09:42:00,
2013-03-22 09:53:00,70.0,67.0,29.68,SE,145,4.0,13.0,91,0.00,,,0.02,,2013-03-22 09:53:00,
2013-03-22 10:03:00,70.0,67.0,29.67,SE,128,5.0,13.0,91,0.00,,,0.02,,2013-03-22 10:03:00,
2013-03-22 10:12:00,70.0,67.0,29.67,SE,128,5.0,13.0,91,0.00,,,0.02,,2013-03-22 10:12:00,
2013-03-22 10:22:00,70.0,67.0,29.67,SSE,148,5.0,9.0,91,0.00,,,0.02,,2013-03-22 10:22:00,
2013-03-22 10:32:00,70.0,67.0,29.67,SE,143,4.0,9.0,91,0.00,,,0.02,,2013-03-22 10:32:00,
2013-03-22 10:42:00,70.0,67.0,29.67,SE,143,4.0,9.0,91,0.00,,,0.02,,2013-03-22 10:42:00,
2013-03-22 10:52:00,70.0,67.0,29.67,South,171,5.0,8.0,91,0.00,,,0.02,,2013-03-22 10:52:00,
2013-03-22 11:03:00,70.0,67.0,29.68,SE,143,5.0,9.0,91,0.00,,,0.02,,2013-03-22 11:03:00,
2013-03-22 11:12:00,70.0,67.0,29.68,SE,143,5.0,9.0,91,0.00,,,0.02,,2013-03-22 11:12:00,
2013-03-22 11:22:00,71.0,68.0,29.68,SSE,155,5.0,8.0,91,0.00,,,0.02,,2013-03-22 11:22:00,
2013-03-22 11:32:00,71.0,68.0,29.69,ESE,118,5.0,9.0,90,0.00,,,0.02,,2013-03-22 11:32:00,
2013-03-22 11:42:00,71.0,68.0,29.69,ESE,118,5.0,9.0,90,0.00,,,0.02,,2013-03-22 11:42:00,
2013-03-22 11:52:00,71.0,68.0,29.70,South,184,3.0,7.0,91,0.00,,,0.02,,2013-03-22 11:52:00,
2013-03-22 12:02:00,71.0,68.0,29.70,South,184,3.0,7.0,91,0.00,,,0.02,,2013-03-22 12:02:00,
2013-03-22 12:12:00,72.0,69.0,29.72,SSE,162,4.0,9.0,89,0.00,,,0.02,,2013-03-22 12:12:00,
2013-03-22 12:22:00,72.0,69.0,29.72,SSE,162,4.0,9.0,89,0.00,,,0.02,,2013-03-22 12:22:00,
2013-03-22 12:32:00,72.0,69.0,29.72,SSE,148,4.0,7.0,89,0.00,,,0.02,,2013-03-22 12:32:00,
2013-03-22 12:42:00,72.0,69.0,29.72,SSE,148,4.0,7.0,89,0.00,,,0.02,,2013-03-22 12:42:00,
2013-03-22 12:52:00,72.0,69.0,29.72,SE,146,3.0,5.0,90,0.00,,,0.02,,2013-03-22 12:52:00,
2013-03-22 13:02:00,72.0,69.0,29.73,SSE,147,2.0,4.0,90,0.00,,,0.02,,2013-03-22 13:02:00,
2013-03-22 13:12:00,72.0,69.0,29.73,SSE,147,2.0,4.0,90,0.00,,,0.02,,2013-03-22 13:12:00,
2013-03-22 13:22:00,72.0,69.0,29.74,SSE,155,3.0,6.0,90,0.00,,,0.02,,2013-03-22 13:22:00,
2013-03-22 13:32:00,72.0,69.0,29.74,SSE,153,3.0,6.0,90,0.00,,,0.02,,2013-03-22 13:32:00,
2013-03-22 13:42:00,72.0,69.0,29.74,SSE,153,3.0,6.0,90,0.00,,,0.02,,2013-03-22 13:42:00,
2013-03-22 13:52:00,72.0,69.0,29.74,SE,141,3.0,6.0,91,0.00,,,0.02,,2013-03-22 13:52:00,
2013-03-22 14:02:00,73.0,70.0,29.75,SE,133,4.0,8.0,91,0.00,,,0.02,,2013-03-22 14:02:00,
2013-03-22 14:12:00,73.0,70.0,29.75,SE,133,4.0,8.0,91,0.00,,,0.02,,2013-03-22 14:12:00,
2013-03-22 14:22:00,73.0,70.0,29.75,SSE,158,4.0,6.0,91,0.00,,,0.02,,2013-03-22 14:22:00,
2013-03-22 14:32:00,74.0,71.0,29.75,SSE,163,5.0,8.0,91,0.00,,,0.02,,2013-03-22 14:32:00,
2013-03-22 14:42:00,74.0,71.0,29.75,SSE,163,5.0,8.0,91,0.00,,,0.02,,2013-03-22 14:42:00,
2013-03-22 14:52:00,75.0,72.0,29.75,SSE,154,5.0,11.0,90,0.00,,,0.02,,2013-03-22 14:52:00,
2013-03-22 15:02:00,76.0,72.0,29.75,SW,229,7.0,12.0,87,0.00,,,0.02,,2013-03-22 15:02:00,
2013-03-22 15:12:00,76.0,72.0,29.75,SW,229,7.0,12.0,87,0.00,,,0.02,,2013-03-22 15:12:00,
2013-03-22 15:22:00,77.0,72.0,29.75,SE,144,7.0,14.0,85,0.00,,,0.02,,2013-03-22 15:22:00,
2013-03-22 15:32:00,78.0,72.0,29.75,South,182,5.0,13.0,83,0.00,,,0.02,,2013-03-22 15:32:00,
2013-03-22 15:42:00,78.0,72.0,29.75,South,182,5.0,13.0,83,0.00,,,0.02,,2013-03-22 15:42:00,
2013-03-22 15:52:00,78.0,72.0,29.76,WSW,238,8.0,15.0,83,0.00,,,0.02,,2013-03-22 15:52:00,
2013-03-22 16:02:00,79.0,73.0,29.75,SSE,147,5.0,12.0,83,0.00,,,0.02,,2013-03-22 16:02:00,
2013-03-22 16:13:00,78.0,72.0,29.76,South,187,5.0,12.0,83,0.00,,,0.02,,2013-03-22 16:13:00,
2013-03-22 16:22:00,78.0,72.0,29.76,South,187,5.0,12.0,83,0.00,,,0.02,,2013-03-22 16:22:00,
2013-03-22 16:32:00,79.0,73.0,29.77,SSW,201,5.0,11.0,83,0.00,,,0.02,,2013-03-22 16:32:00,
2013-03-22 16:42:00,79.0,73.0,29.77,SW,236,7.0,15.0,82,0.00,,,0.02,,2013-03-22 16:42:00,
2013-03-22 16:52:00,79.0,73.0,29.77,SW,236,7.0,15.0,82,0.00,,,0.02,,2013-03-22 16:52:00,
2013-03-22 17:03:00,79.0,73.0,29.77,SE,129,5.0,13.0,82,0.00,,,0.02,,2013-03-22 17:03:00,
2013-03-22 17:12:00,79.0,73.0,29.77,SE,129,5.0,13.0,82,0.00,,,0.02,,2013-03-22 17:12:00,
2013-03-22 17:23:00,79.0,73.0,29.77,SE,129,5.0,13.0,82,0.00,,,0.02,,2013-03-22 17:23:00,
2013-03-22 17:32:00,79.0,73.0,29.76,ESE,117,8.0,12.0,83,0.00,,,0.02,,2013-03-22 17:32:00,
2013-03-22 17:42:00,79.0,73.0,29.76,ESE,117,8.0,12.0,83,0.00,,,0.02,,2013-03-22 17:42:00,
2013-03-22 17:53:00,80.0,74.0,29.76,SW,218,5.0,14.0,81,0.00,,,0.02,,2013-03-22 17:53:00,
2013-03-22 18:02:00,81.0,75.0,29.75,SSW,200,6.0,13.0,81,0.00,,,0.02,,2013-03-22 18:02:00,
2013-03-22 18:12:00,81.0,75.0,29.75,SSW,200,6.0,13.0,81,0.00,,,0.02,,2013-03-22 18:12:00,
2013-03-22 18:22:00,80.0,74.0,29.75,SSW,208,6.0,13.0,81,0.00,,,0.02,,2013-03-22 18:22:00,
2013-03-22 18:32:00,81.0,75.0,29.74,SSW,207,7.0,16.0,81,0.00,,,0.02,,2013-03-22 18:32:00,
2013-03-22 18:42:00,81.0,75.0,29.74,SSW,207,7.0,16.0,81,0.00,,,0.02,,2013-03-22 18:42:00,
2013-03-22 18:52:00,82.0,74.0,29.73,SSE,153,7.0,16.0,77,0.00,,,0.02,,2013-03-22 18:52:00,
2013-03-22 19:02:00,83.0,75.0,29.72,SW,225,6.0,15.0,78,0.00,,,0.02,,2013-03-22 19:02:00,
2013-03-22 19:12:00,83.0,74.0,29.72,ESE,118,7.0,14.0,75,0.00,,,0.02,,2013-03-22 19:12:00,
2013-03-22 19:22:00,83.0,74.0,29.72,ESE,118,7.0,14.0,75,0.00,,,0.02,,2013-03-22 19:22:00,
2013-03-22 19:32:00,83.0,75.0,29.71,SSW,198,7.0,15.0,76,0.00,,,0.02,,2013-03-22 19:32:00,
2013-03-22 19:42:00,83.0,75.0,29.71,SSW,198,7.0,15.0,76,0.00,,,0.02,,2013-03-22 19:42:00,
2013-03-22 19:52:00,83.0,75.0,29.70,WSW,250,8.0,17.0,76,0.00,,,0.02,,2013-03-22 19:52:00,
2013-03-22 20:02:00,83.0,74.0,29.70,SSW,209,7.0,15.0,75,0.00,,,0.02,,2013-03-22 20:02:00,
2013-03-22 20:12:00,83.0,74.0,29.70,SSW,209,7.0,15.0,75,0.00,,,0.02,,2013-03-22 20:12:00,
2013-03-22 20:22:00,83.0,74.0,29.70,WSW,250,10.0,16.0,74,0.00,,,0.02,,2013-03-22 20:22:00,
2013-03-22 20:32:00,83.0,75.0,29.69,South,183,6.0,11.0,76,0.00,,,0.02,,2013-03-22 20:32:00,
2013-03-22 20:42:00,83.0,75.0,29.69,South,183,6.0,11.0,76,0.00,,,0.02,,2013-03-22 20:42:00,
2013-03-22 20:52:00,83.0,75.0,29.69,SW,227,7.0,18.0,76,0.00,,,0.02,,2013-03-22 20:52:00,
2013-03-22 21:02:00,82.0,74.0,29.69,SW,232,6.0,17.0,77,0.00,,,0.02,,2013-03-22 21:02:00,
2013-03-22 21:12:00,82.0,74.0,29.69,SW,215,9.0,14.0,76,0.00,,,0.02,,2013-03-22 21:12:00,
2013-03-22 21:22:00,82.0,74.0,29.69,SW,215,9.0,14.0,76,0.00,,,0.02,,2013-03-22 21:22:00,
2013-03-22 21:32:00,82.0,74.0,29.69,SW,219,7.0,14.0,77,0.00,,,0.02,,2013-03-22 21:32:00,
2013-03-22 21:42:00,82.0,74.0,29.69,SW,219,7.0,14.0,77,0.00,,,0.02,,2013-03-22 21:42:00,
2013-03-22 21:53:00,81.0,73.0,29.69,SSW,202,6.0,13.0,78,0.00,,,0.02,,2013-03-22 21:53:00,
2013-03-22 22:02:00,81.0,74.0,29.69,SSW,211,6.0,13.0,79,0.00,,,0.02,,2013-03-22 22:02:00,
2013-03-22 22:12:00,81.0,74.0,29.69,SSW,211,6.0,13.0,79,0.00,,,0.02,,2013-03-22 22:12:00,
2013-03-22 22:23:00,81.0,74.0,29.69,South,185,6.0,14.0,79,0.00,,,0.02,,2013-03-22 22:23:00,
2013-03-22 22:32:00,80.0,73.0,29.69,SSW,209,6.0,12.0,80,0.00,,,0.02,,2013-03-22 22:32:00,
2013-03-22 22:42:00,80.0,73.0,29.69,SSW,209,6.0,12.0,80,0.00,,,0.02,,2013-03-22 22:42:00,
2013-03-22 22:52:00,80.0,74.0,29.69,SSW,200,5.0,12.0,81,0.00,,,0.02,,2013-03-22 22:52:00,
2013-03-22 23:02:00,80.0,74.0,29.69,SSW,200,5.0,12.0,81,0.00,,,0.02,,2013-03-22 23:02:00,
2013-03-22 23:12:00,80.0,74.0,29.69,SSW,200,5.0,12.0,81,0.00,,,0.02,,2013-03-22 23:12:00,
2013-03-22 23:22:00,79.0,73.0,29.70,South,172,4.0,9.0,83,0.00,,,0.02,,2013-03-22 23:22:00,
2013-03-22 23:32:00,79.0,73.0,29.70,South,172,4.0,9.0,83,0.00,,,0.02,,2013-03-22 23:32:00,
2013-03-22 23:42:00,79.0,73.0,29.70,South,172,4.0,9.0,83,0.00,,,0.02,,2013-03-22 23:42:00,
2013-03-22 23:52:00,78.0,73.0,29.70,SSE,149,3.0,7.0,85,0.00,,,0.02,,2013-03-22 23:52:00,